Tracking 19490 objects as of 24-Jan-2019
HD Live streaming from Space Station
objects crossing your sky now

FENGYUN 1C DEB

Track FENGYUN 1C DEB now!
10-day predictions


NORAD ID: 30358
Int'l Code: 1999-025ABV
Perigee: 804.7 km
Apogee: 943.3 km
Inclination: 98.7 °
Period: 102.3 minutes
Semi major axis: 7244 km
RCS: 0.037 m2 (small)
Launch date: May 10, 1999
Source: People's Republic of China (PRC)
Launch site: Taiyaun Space Center, China (TSC)

Note: This is SATELLITE DEBRIS
aabbcc
Your satellite tracking list
Your tracking list is empty




NASA's NSSDC Master Catalog

Two Line Element Set (TLE):
1 30358U 99025ABV 19023.67082455 +.00000280 +00000-0 +18214-3 0  9995
2 30358 098.7322 273.4084 0095644 158.5834 256.0590 14.07823377614361
Source of the keplerian elements: AFSPC